Left ArrowRight Arrow

38.83388, -104.82136

Hourly Observations for September 29, 2018

Temp ( °F °C ) Dew Point ( °F °C ) Humidity (%) Winds ( mph kmh ) Pressure ( in mb ) Visibility ( mi km ) Precip ( " mm )
12:58 am 00:58 Mostly Cloudy with Fog 37 3 37 3 100 100 S 3 6 29.81 1009 5 8 0.00 0.00
1:58 am 01:58 Mostly Cloudy with Fog 37 3 37 3 100 100 SE 5 7 29.79 1009 5 8 0.00 0.00
2:56 am 02:56 Mostly Cloudy with Fog 38 3.1 38 3.1 100 100 Calm 29.78 1008 5 8 0.00 0.00
3:18 am 03:18 Mostly Cloudy with Light Rain 37 3 37 3 100 100 Calm 29.78 1008 5 8 0.00 0.00
3:37 am 03:37 Mostly Cloudy with Fog 37 3 37 3 100 100 Calm 29.77 1008 5 8 0.00 0.00
3:51 am 03:51 Mostly Cloudy with Light Showers 37 3 37 3 100 100 Calm 29.77 1008 5 8 0.00 0.00
3:58 am 03:58 Mostly Cloudy with Light Showers 38 3.1 37 3 99 99 Calm 29.78 1009 5 8 0.00 0.00
4:07 am 04:07 Mostly Cloudy with Fog 37 3 37 3 100 100 Calm 29.77 1008 5 8 0.00 0.00
4:58 am 04:58 Mostly Cloudy with Fog 38 3.1 38 3.3 100 100 Calm 29.77 1008 5 8 0.00 0.00
5:58 am 05:58 Mostly Cloudy with Mist and Fog 38 3.5 38 3.3 99 99 Calm 29.77 1008 3 5 0.00 0.00
6:03 am 06:03 Mostly Cloudy with Fog 37 3 37 3 100 100 Calm 29.79 1009 1 1 0.00 0.00
6:08 am 06:08 Mostly Cloudy with Fog 37 3 37 3 100 100 Calm 29.79 1009 0 0 0.00 0.00
6:18 am 06:18 Mostly Cloudy with Fog 37 3 37 3 100 100 Calm 29.78 1008 3 5 0.00 0.00
6:33 am 06:33 Mostly Cloudy 41 5 41 5 100 100 S 3 6 29.76 1008 10 16 0.00 0.00
6:58 am 06:58 Mostly Cloudy 55 12.9 26 -3.5 32 32 SSE 3 6 29.70 1006 10 16 0.00 0.00
7:58 am 07:58 Mostly Cloudy 62 16.9 14 -10 15 15 S 8 13 29.66 1005 10 16 0.00 0.00
8:58 am 08:58 Mostly Cloudy 63 17.4 13 -10.7 14 14 SSW 12 19 29.67 1005 10 16 0.00 0.00
9:58 am 09:58 Mostly Cloudy 65 18.4 13 -10.8 13 13 SW 9 15 29.68 1005 10 16 0.00 0.00
10:58 am 10:58 Mostly Cloudy 59 15.1 31 -0.5 35 35 Calm 29.72 1006 10 16 0.00 0.00
11:58 am 11:58 Mostly Cloudy 66 18.9 18 -7.8 16 16 SSW 9 15 29.67 1005 10 16 0.00 0.00
12:58 pm 12:58 Mostly Sunny 64 18 42 5.6 44 44 Calm 29.65 1004 10 16 0.00 0.00
1:58 pm 13:58 Partly Cloudy 69 20.5 37 2.7 31 31 Calm 29.63 1003 10 16 0.00 0.00
2:58 pm 14:58 Sunny 72 22.2 31 -0.4 22 22 NNE 6 9 29.59 1002 10 16 0.00 0.00
4:58 pm 16:58 Sunny 76 24.2 17 -8.6 11 11 SSE 10 17 29.57 1001 10 16 0.00 0.00
5:58 pm 17:58 Sunny 75 23.9 17 -8.3 11 11 S 9 15 29.57 1001 10 16 0.00 0.00
6:58 pm 18:58 Clear 74 23.2 18 -7.6 12 12 SW 5 7 29.52 1000 10 16 0.00 0.00
7:58 pm 19:58 Clear 73 22.5 18 -8 12 12 SSW 7 11 29.51 999 10 16 0.00 0.00
8:58 pm 20:58 Clear 73 22.5 18 -7.6 13 13 WSW 9 15 29.52 1000 10 16 0.00 0.00
9:58 pm 21:58 Clear 71 21.6 23 -5.2 16 16 SW 7 11 29.52 1000 10 16 0.00 0.00
10:58 pm 22:58 Clear 66 18.9 22 -5.4 19 19 NNW 12 19 29.57 1001 10 16 0.00 0.00
11:58 pm 23:58 Clear 65 18.1 21 -6 19 19 NW 7 11 29.53 1000 10 16 0.00 0.00

Powered by Vaisala Xweather